Theta_e
331 334 322 323 310 307 306 308 314 315 316 321 321 322 323 324 321 319 339 345 345 347 351 357 358 358 359 358 356 355 355 355 355 355 355 353 352 350 347 345 343 341 339 337 337 336 335 336 337
335 325 322 317 305 302 305 312 311 317 321 322 323 322 322 322 329 332 336 346 345 350 352 348 357 357 358 357 356 355 355 354 354 354 353 352 351 349 345 342 340 339 339 338 338 338 338 339 339
330 321 314 309 306 303 307 311 316 319 321 320 321 324 325 323 331 332 340 347 348 352 353 348 357 357 357 356 356 355 354 354 354 353 352 351 349 347 345 343 342 339 339 339 340 340 339 340 340
322 319 315 306 304 307 308 315 318 317 321 323 324 320 326 333 334 334 345 346 349 351 351 353 356 356 356 356 355 354 353 353 352 352 350 349 348 346 345 344 344 341 339 340 340 340 340 341 342
322 314 305 303 304 309 312 315 318 316 318 322 324 321 323 333 340 343 345 345 346 349 351 352 356 356 356 356 355 353 352 351 350 349 349 348 347 346 346 345 344 343 341 342 342 342 343 343 343
313 312 302 301 303 308 312 315 316 316 321 323 321 322 326 337 340 343 344 345 346 347 351 351 357 356 355 355 354 352 351 350 349 349 348 348 347 347 346 346 344 345 346 344 344 344 345 346 346
312 307 302 303 302 305 309 315 313 316 320 321 325 321 326 331 339 344 345 346 347 349 352 352 353 354 356 355 353 352 350 349 349 348 348 348 348 347 347 346 346 347 347 348 348 346 346 345 347
315 311 304 304 302 302 310 314 314 316 319 325 325 321 322 329 338 344 345 346 347 349 350 350 352 349 348 349 354 352 351 350 349 348 348 348 348 347 347 346 346 347 348 348 348 346 346 347 346
318 308 305 305 304 305 310 309 316 320 319 321 323 324 327 334 340 339 341 341 341 343 349 351 349 351 348 343 345 353 352 351 350 349 349 347 341 343 342 342 346 348 348 347 347 347 347 347 345
312 308 308 311 311 306 308 310 313 315 318 319 320 323 324 328 331 332 333 333 337 340 344 348 353 351 350 342 346 349 345 346 345 343 343 343 342 343 340 343 347 348 348 347 347 348 348 345 342
313 307 313 313 313 310 309 311 313 312 313 319 319 322 323 324 326 326 327 328 330 331 334 344 351 354 351 347 344 345 346 347 346 344 348 347 342 344 341 340 342 344 346 345 347 348 346 345 342
307 313 313 314 314 310 308 313 312 313 313 319 321 323 324 325 325 325 326 328 329 330 333 336 349 354 355 349 347 346 345 347 344 344 351 347 345 347 344 339 342 343 338 343 346 344 347 346 344
307 310 313 314 313 312 311 310 312 313 317 320 321 322 323 324 325 327 327 329 330 330 334 336 343 352 355 355 351 350 347 346 347 345 348 348 342 347 344 344 340 342 341 341 345 344 345 346 345
307 307 309 312 312 314 311 313 314 317 320 321 322 322 323 323 324 326 327 327 330 331 333 336 338 349 354 354 355 353 354 350 348 346 346 350 345 348 341 343 340 340 341 340 343 343 344 343 343
305 302 305 307 310 310 314 309 311 317 319 319 320 321 322 323 324 324 327 329 331 332 335 339 341 345 354 355 354 352 349 349 346 347 353 348 351 349 347 340 340 338 342 346 343 344 344 342 342
299 300 297 305 307 308 309 304 313 318 317 317 318 318 319 321 323 325 327 330 332 334 335 338 335 337 349 356 352 348 347 347 346 346 347 349 350 350 348 339 339 339 341 340 338 342 339 340 340
299 293 296 299 307 305 305 303 310 315 315 314 316 317 318 320 323 327 327 329 331 333 335 337 339 338 346 350 346 350 355 348 346 346 346 348 347 347 345 341 339 348 338 337 338 337 339 338 341
292 294 296 297 303 305 303 303 308 312 313 313 315 317 318 319 320 323 325 326 328 331 339 343 341 347 345 342 347 344 345 346 346 345 346 348 347 347 346 342 343 343 337 336 336 339 340 344 344
296 296 296 299 303 302 302 303 305 309 310 311 313 314 315 316 320 321 322 325 326 331 339 341 343 352 342 336 338 341 341 345 345 345 348 348 347 346 346 343 342 342 339 339 341 339 342 344 344
295 293 295 298 302 302 301 301 305 308 309 311 312 313 314 316 317 319 321 323 326 333 338 342 343 346 343 338 344 344 345 344 345 345 348 348 345 347 346 345 343 342 337 340 342 343 338 342 343
293 292 293 294 299 301 300 298 302 306 309 310 311 313 314 314 315 318 319 323 325 329 336 337 341 344 344 345 344 347 347 348 345 345 343 343 347 346 346 346 345 343 339 337 341 347 341 340 336
288 295 295 294 294 290 300 290 299 303 304 307 309 311 312 314 316 317 318 320 324 325 328 332 337 338 338 345 348 351 343 340 342 344 342 346 346 345 345 344 345 344 338 343 345 346 340 340 334
291 295 295 294 293 293 294 292 297 302 301 305 308 310 312 314 315 316 317 319 321 323 326 332 335 342 342 345 350 346 346 344 345 344 346 343 345 344 344 346 344 342 340 347 344 343 342 340 333
296 292 292 294 292 286 292 293 293 298 301 304 308 309 310 312 314 316 319 320 321 323 325 333 342 345 342 344 347 349 348 348 344 345 336 339 340 343 345 344 345 346 346 346 344 342 341 338 334
293 289 283 282 284 283 294 291 294 302 304 303 305 309 310 313 314 316 317 319 322 329 335 340 343 342 342 343 345 347 350 349 349 339 340 343 341 341 344 347 348 347 347 344 343 341 338 336 333
290 289 283 278 281 285 292 288 294 303 305 306 308 310 313 316 319 321 320 319 325 333 339 342 342 341 343 344 346 349 350 347 347 347 345 344 343 344 348 347 346 345 345 342 340 336 334 337 335
290 286 293 285 287 286 290 293 299 302 303 305 307 311 314 321 325 324 321 330 336 340 343 343 343 344 345 346 347 348 348 349 347 348 348 344 346 345 346 346 345 342 340 339 339 333 335 336 338
294 293 285 286 278 280 288 290 292 298 300 303 306 308 315 326 321 322 330 337 341 343 345 346 346 345 346 346 347 347 348 348 348 346 344 344 344 344 343 342 340 338 337 337 338 335 337 337 341
290 289 291 289 287 283 284 289 300 302 303 303 306 309 320 325 324 327 332 338 342 343 344 345 344 344 344 345 345 345 344 345 345 343 343 343 343 342 339 337 336 335 335 337 339 338 336 334 335
292 291 289 285 284 288 288 292 304 304 304 305 306 309 320 323 324 328 332 339 340 341 342 342 343 342 343 343 343 343 342 342 342 341 341 341 339 337 335 334 333 333 334 337 336 334 334 332 331
Wind_Speed
11 9 5 6 9 8 14 8 2 10 7 5 3 7 12 11 15 1 6 12 12 20 22 24 22 20 20 18 18 17 16 16 16 16 15 14 13 13 12 10 10 11 11 11 10 10 9 8 7
8 6 6 5 10 12 12 8 12 8 6 2 8 8 8 10 3 5 12 11 16 18 19 22 23 22 21 19 18 18 17 17 16 16 15 15 14 13 14 13 11 11 11 11 10 9 8 8 7
7 7 7 6 13 14 7 9 8 4 4 6 7 6 6 4 6 5 13 15 17 17 18 20 24 23 23 22 19 18 17 17 16 16 16 15 15 14 14 14 13 13 11 10 10 9 8 6 5
7 6 6 12 17 17 8 3 5 2 3 5 5 6 5 1 6 10 16 14 15 16 18 18 22 20 21 21 19 18 18 17 17 17 17 16 15 15 14 14 14 13 12 11 10 9 8 7 6
6 5 11 16 21 16 10 11 5 6 4 9 10 7 4 6 5 11 17 13 14 15 15 18 20 19 19 18 18 17 17 17 17 17 17 17 17 15 14 14 14 13 13 12 11 11 9 8 6
8 6 12 17 19 17 15 12 11 11 7 8 10 7 6 9 11 11 15 13 11 12 13 14 19 16 16 18 18 17 17 18 18 18 17 16 16 15 14 14 13 13 13 13 12 10 8 7 7
15 11 16 19 15 17 17 14 12 12 9 9 5 12 7 13 9 9 12 11 9 10 11 11 16 16 13 14 16 18 18 18 18 17 16 16 15 14 14 13 13 12 11 11 10 9 9 8 8
11 11 21 19 17 20 10 11 16 13 11 6 3 8 10 4 8 8 10 11 11 10 10 11 12 17 18 17 16 17 18 18 18 17 16 16 15 14 14 12 12 12 10 10 8 9 9 8 8
14 13 17 21 19 15 6 15 10 7 6 7 3 3 10 6 9 10 10 11 9 8 9 10 13 15 17 17 17 16 17 18 18 16 15 14 13 15 16 14 13 13 11 10 10 10 10 9 9
16 17 26 19 14 11 15 15 10 9 16 14 9 5 4 5 5 10 10 11 11 10 10 11 11 14 14 12 14 15 16 15 15 16 17 14 15 13 14 14 12 15 13 13 13 11 9 9 8
22 26 21 22 17 15 18 18 13 13 17 17 14 14 2 4 8 9 8 8 6 4 5 9 11 12 14 13 10 8 9 10 12 18 15 15 12 12 12 9 10 10 12 8 12 13 10 10 6
26 25 26 24 15 16 21 20 24 21 19 17 9 10 13 13 11 11 13 13 11 11 9 6 10 12 14 10 11 11 11 11 11 15 17 13 11 11 11 10 12 9 8 11 11 7 8 8 8
28 29 23 22 22 17 18 25 24 26 22 20 20 17 19 19 16 13 12 14 14 13 13 9 9 12 12 14 11 12 13 12 13 14 17 15 15 11 12 11 10 10 10 9 9 8 8 9 9
17 26 30 27 19 22 23 28 22 28 23 22 19 22 21 21 17 15 14 15 15 14 14 13 10 10 12 13 14 11 11 12 12 13 14 20 14 12 14 12 13 12 11 10 9 9 9 7 8
24 26 24 23 29 26 19 30 37 27 24 23 23 24 23 23 20 19 18 16 16 13 12 11 9 9 12 14 13 11 12 12 13 13 14 17 16 14 14 13 13 13 10 12 9 8 5 8 7
17 22 25 32 24 24 23 29 36 27 27 27 28 26 25 26 24 22 19 17 12 12 12 12 12 11 11 12 11 11 11 12 12 12 12 17 17 17 15 13 12 12 11 11 10 8 10 8 7
21 25 32 29 28 24 22 37 36 30 23 27 22 25 24 23 20 15 13 12 13 13 13 13 14 15 12 11 11 12 12 11 11 10 11 15 17 18 14 13 12 13 11 10 9 9 8 7 6
27 26 27 28 23 27 30 36 29 22 18 27 25 21 20 18 19 17 16 16 16 14 14 14 14 13 11 10 9 11 10 10 9 10 10 14 13 16 13 12 13 13 12 10 9 9 8 4 5
24 28 24 21 22 24 28 33 30 28 28 28 24 22 23 24 21 20 18 16 17 16 15 14 13 12 9 9 10 10 11 9 9 10 12 13 12 14 16 12 13 12 12 11 11 9 9 6 5
25 27 28 19 16 22 25 30 28 27 25 27 26 25 25 25 23 22 20 19 18 17 15 15 14 11 11 10 9 8 7 8 8 8 10 12 13 16 14 14 12 14 11 11 9 11 7 5 6
23 26 25 24 15 21 20 24 25 21 23 23 24 24 26 26 25 23 23 23 21 19 16 14 13 12 11 12 8 7 5 3 8 9 8 9 15 14 14 13 11 12 10 10 12 10 9 5 4
24 23 22 25 24 21 20 19 23 24 28 30 28 26 27 26 25 24 24 24 20 19 15 14 12 11 11 12 10 11 9 8 7 8 9 12 13 10 9 12 12 12 11 10 10 8 8 5 6
17 21 19 20 23 25 30 18 17 19 23 22 21 24 24 24 25 22 19 19 17 16 14 13 13 12 11 12 12 11 11 8 8 8 12 7 8 10 13 13 12 12 10 10 11 7 6 5 8
15 14 19 19 15 20 22 19 18 18 23 18 17 18 20 19 20 16 15 13 12 11 12 11 10 10 10 12 13 12 11 10 10 10 10 8 8 8 11 13 12 12 9 9 7 7 7 7 5
14 16 13 18 20 19 20 18 18 9 9 2 10 10 9 12 13 13 13 10 8 9 8 7 8 7 8 11 12 12 11 10 12 13 11 13 9 10 12 13 11 9 9 8 8 7 7 8 7
22 19 16 19 16 20 25 15 16 12 17 6 7 9 10 10 11 11 10 9 8 5 5 7 8 9 11 11 12 11 12 9 10 11 12 10 10 11 14 11 11 10 9 8 7 7 7 8 8
23 15 25 24 22 18 18 24 26 10 10 5 1 8 12 12 11 8 7 7 5 7 8 10 12 12 13 13 12 12 11 12 12 14 11 9 11 11 12 11 10 9 9 9 8 6 8 7 7
23 1 8 15 16 18 15 23 13 22 23 4 7 13 15 13 6 6 7 8 8 10 11 12 13 14 14 14 13 12 14 15 14 12 13 13 12 12 12 11 10 9 9 9 8 7 7 7 6
4 8 14 15 18 9 13 14 20 14 11 7 11 15 15 12 4 6 6 10 11 12 12 13 14 15 14 14 14 14 14 14 13 13 13 12 12 11 10 10 10 9 8 8 7 7 7 9 7
10 18 4 6 17 13 11 5 11 18 10 11 15 17 16 10 6 3 7 11 13 13 14 14 14 15 15 14 15 14 14 14 13 13 12 11 11 10 10 10 9 8 8 8 8 9 8 5 7
Wind_Direction
217 215 223 222 237 236 238 209 237 176 188 159 245 198 211 187 183 29 119 126 145 157 161 170 169 174 173 175 173 170 168 167 168 166 166 167 170 170 168 166 163 160 159 158 152 147 146 147 144
185 185 218 252 251 219 216 193 199 184 103 242 197 214 238 210 158 87 137 138 149 154 165 173 172 175 175 176 176 176 173 177 173 172 173 173 175 176 171 169 171 172 171 164 155 153 154 154 149
192 225 249 228 236 246 208 182 178 159 255 219 180 230 167 225 176 156 111 150 151 158 169 176 175 178 176 177 178 177 177 182 178 179 179 181 179 178 174 172 175 178 175 167 164 161 160 158 161
201 195 236 244 235 224 265 191 98 201 181 211 207 186 179 103 162 148 142 149 150 162 174 164 178 182 179 176 176 180 181 183 183 185 183 183 184 183 179 179 180 177 176 175 175 174 172 179 185
214 254 244 234 245 246 236 260 282 273 243 189 196 167 194 141 136 138 148 157 161 166 177 166 178 189 182 174 177 182 185 185 188 189 188 187 187 185 184 184 184 180 179 181 183 184 185 189 200
214 260 234 239 239 243 242 255 262 263 225 194 214 199 145 124 156 151 160 166 166 166 178 173 180 188 183 179 177 185 190 190 190 193 190 192 190 184 185 190 187 188 187 187 189 190 196 205 220
241 222 245 251 265 261 244 233 252 248 202 192 178 197 115 154 130 155 167 167 167 170 178 183 181 188 186 185 182 188 192 195 196 194 192 193 195 190 189 192 192 198 195 195 195 198 205 213 231
229 252 252 246 243 247 257 252 232 243 217 91 259 173 159 103 158 146 164 177 183 175 187 187 191 189 198 192 193 194 195 197 199 198 193 191 196 195 196 196 199 204 204 204 206 209 214 222 223
235 239 241 242 233 246 264 253 217 264 266 205 186 71 74 102 160 166 176 190 192 192 195 199 191 197 204 206 193 196 202 202 200 200 200 190 203 198 198 203 183 204 206 209 213 217 217 220 223
214 228 237 241 251 238 240 246 245 231 215 220 213 137 70 154 175 178 189 198 197 209 206 206 209 210 207 214 208 200 209 211 211 206 202 210 209 206 207 196 198 194 203 205 208 217 223 224 234
219 240 241 238 228 234 250 250 228 244 234 227 225 178 208 283 284 288 259 275 277 250 276 213 204 216 213 210 207 208 209 210 210 213 205 203 206 206 203 201 194 198 200 210 208 194 214 220 247
240 244 243 256 225 237 240 248 250 247 242 259 258 264 272 265 268 278 283 285 274 276 291 260 209 209 218 222 208 213 216 210 213 208 207 206 205 202 206 205 197 199 179 203 210 215 215 215 229
239 243 246 243 256 234 254 250 252 250 246 248 258 266 266 266 266 263 259 270 273 273 275 258 212 212 211 217 225 217 221 217 216 214 204 208 205 202 201 205 204 189 208 186 216 197 226 214 225
239 244 250 255 234 246 243 255 249 244 247 254 259 261 265 268 269 270 259 255 261 262 263 269 237 222 206 221 225 228 225 229 220 221 215 206 211 200 202 203 205 204 193 207 198 225 199 217 228
259 263 259 244 243 238 245 255 247 252 252 256 258 259 262 265 270 267 265 259 265 263 259 264 256 222 218 222 230 231 235 222 228 222 218 207 210 210 210 205 204 207 204 199 210 231 216 216 223
252 245 247 236 228 239 225 254 245 241 251 253 255 259 260 260 259 263 264 266 261 260 266 262 263 254 228 233 236 235 236 234 224 221 216 211 208 221 201 212 207 207 201 200 207 195 215 221 223
234 239 230 247 230 221 221 244 255 257 254 247 253 258 261 262 264 263 265 263 263 266 265 261 259 261 261 248 246 239 236 229 231 218 212 204 208 211 219 216 207 206 206 200 195 212 225 215 222
232 234 245 260 237 228 224 242 248 265 246 250 245 252 250 256 259 267 267 267 267 257 256 252 258 262 250 254 240 242 227 221 223 218 213 206 202 206 203 213 213 198 208 195 204 208 203 215 233
267 268 255 273 242 255 236 245 251 248 247 255 250 251 260 263 269 271 270 267 267 259 253 251 252 244 232 232 227 223 218 207 210 214 206 203 194 195 198 214 202 201 205 200 184 196 204 208 223
245 253 256 259 266 244 240 249 250 250 253 251 253 255 262 265 262 261 261 259 254 255 254 250 250 244 225 224 227 237 217 209 200 194 191 191 177 198 200 211 191 196 195 191 180 194 191 207 201
254 247 249 249 244 237 249 252 253 248 252 256 257 257 258 260 264 266 266 264 259 254 249 247 242 232 227 231 213 204 195 199 186 178 168 188 192 196 203 199 195 183 194 181 188 190 194 211 185
247 250 246 250 247 244 226 256 246 241 240 240 245 248 255 259 262 264 262 261 259 258 251 247 245 240 234 215 208 203 192 187 190 186 166 183 191 176 178 187 190 178 189 178 182 185 216 202 216
262 243 247 247 239 248 245 257 262 254 255 253 252 250 253 256 256 262 266 268 266 254 246 245 247 244 234 203 214 192 210 168 165 169 152 138 157 172 177 182 173 181 192 169 184 180 193 207 251
258 255 249 241 268 244 238 242 258 253 247 250 253 246 254 260 260 262 274 262 255 249 238 233 240 237 217 204 200 198 183 166 158 135 142 153 153 163 168 170 172 171 179 170 169 183 200 232 212
235 234 232 221 222 240 233 233 243 329 104 29 268 232 280 279 262 256 258 242 229 221 223 224 223 197 182 183 179 180 166 164 150 140 153 154 150 161 160 163 161 166 163 163 174 180 182 196 208
238 232 238 232 228 228 222 234 226 233 260 284 254 268 278 290 289 262 251 243 227 213 187 192 158 145 149 150 154 151 149 154 140 159 144 145 154 152 153 160 160 154 156 159 166 179 201 190 206
247 224 262 261 282 241 216 211 257 250 246 211 325 339 327 314 303 270 205 176 145 152 154 140 133 131 130 125 127 134 133 139 125 127 134 139 133 132 149 152 149 150 158 167 168 199 200 198 204
249 7 291 239 256 234 222 209 223 207 227 186 20 350 347 338 303 156 144 121 151 136 124 121 125 122 119 122 126 123 119 117 123 131 123 127 131 135 143 142 147 158 168 174 191 184 195 199 212
264 222 236 255 240 258 226 205 198 122 98 59 15 4 4 347 49 98 129 152 135 128 125 122 120 118 117 116 114 118 117 121 125 124 126 127 129 137 144 149 156 164 171 183 193 205 205 211 205
197 241 279 270 227 248 304 75 97 121 96 29 9 8 21 6 14 129 148 140 136 131 127 119 117 118 118 118 114 115 120 121 122 122 122 132 135 143 144 150 157 165 179 187 209 218 216 206 216